This demonstration page uses our WeatherBlox Daily Observations layout. Learn more.

Left ArrowRight Arrow

30.21309, -93.2044

Hourly Observations for July 8, 2019

Temp ( °F °C ) Dew Point ( °F °C ) Humidity (%) Winds ( mph kmh ) Pressure ( in mb ) Visibility ( mi km ) Precip ( " mm )
12:15 am 00:15 Clear 80 26.9 76 24.2 85 85 Calm 29.99 1016 10 16 0.00 0.00
12:35 am 00:35 Clear 81 27.3 76 24.6 85 85 WSW 3 6 29.99 1016 10 16 0.00 0.00
12:55 am 00:55 Clear 83 28.1 76 24.5 81 81 WSW 3 6 29.99 1016 10 16 0.00 0.00
1:15 am 01:15 Clear 82 28 76 24.5 81 81 WSW 3 6 29.98 1015 10 16 0.00 0.00
1:35 am 01:35 Clear 82 27.8 76 24.6 83 83 WSW 3 6 29.98 1015 10 16 0.00 0.00
1:55 am 01:55 Clear 82 27.6 76 24.7 84 84 SW 3 6 29.98 1015 10 16 0.00 0.00
2:15 am 02:15 Mostly Clear 81 27.4 77 24.8 86 86 WSW 3 6 29.98 1015 N/A 0.00 0.00
2:35 am 02:35 Clear 82 27.6 77 25 86 86 WSW 3 6 29.97 1015 N/A 0.00 0.00
2:55 am 02:55 Clear 82 27.5 77 25 86 86 WSW 3 6 29.97 1015 10 16 0.00 0.00
3:15 am 03:15 Mostly Clear 81 27.3 77 25 87 87 SW 3 6 29.96 1015 N/A 0.00 0.00
3:35 am 03:35 Mostly Clear 81 27.2 77 25 88 88 Calm 29.96 1015 N/A 0.00 0.00
4:15 am 04:15 Mostly Clear 79 25.9 77 24.9 94 94 Calm 29.95 1014 N/A 0.00 0.00
4:35 am 04:35 Mostly Clear 81 27.1 77 25 88 88 SW 3 6 29.95 1014 N/A 0.00 0.00
4:55 am 04:55 Mostly Clear 80 26.9 77 25 89 89 W 5 7 29.95 1014 N/A 0.00 0.00
5:15 am 05:15 Clear 79 26.2 76 24.6 91 91 N 7 11 29.96 1015 10 16 0.00 0.00
5:35 am 05:35 Clear 79 26.1 76 24.6 91 91 N 7 11 29.96 1015 10 16 0.00 0.00
6:00 am 06:00 Mostly Clear 77 25 75 24 94 94 NNE 8 13 29.96 1015 10 16 0.00 0.00
6:50 am 06:50 Mostly Sunny 77 25 75 24 94 94 Calm 29.98 1015 10 16 0.00 0.00
7:55 am 07:55 Mostly Sunny 82 28 77 25 84 84 Calm 29.99 1016 10 16 0.00 0.00
8:45 am 08:45 Partly Cloudy 86 30 77 25 75 75 Calm 30.01 1016 10 16 0.00 0.00
9:45 am 09:45 Mostly Cloudy 88 31 75 24 66 66 W 9 15 30.00 1016 10 16 0.00 0.00
10:55 am 10:55 Mostly Cloudy 90 32 75 24 63 63 W 8 13 30.01 1016 10 16 0.00 0.00
11:45 am 11:45 Mostly Cloudy 90 32 73 23 59 59 WNW 8 13 30.01 1016 10 16 0.00 0.00
12:45 pm 12:45 Mostly Cloudy 91 33 73 23 56 56 SSE 6 9 29.99 1016 10 16 0.00 0.00
1:55 pm 13:55 Mostly Cloudy 91 33 73 23 56 56 SSW 7 11 29.97 1015 10 16 0.00 0.00
2:55 pm 14:55 Mostly Cloudy 93 34 75 24 56 56 S 5 7 29.94 1014 10 16 0.00 0.00
3:50 pm 15:50 Mostly Cloudy with Thunderstorms 91 33 75 24 59 59 S 6 9 29.93 1014 10 16 0.00 0.00
4:50 pm 16:50 Mostly Cloudy with Showers Nearby 84 29 77 25 79 79 Calm 29.91 1013 10 16 0.00 0.00
5:50 pm 17:50 Partly Cloudy 91 33 75 24 59 59 Calm 29.91 1013 10 16 0.00 0.00
6:50 pm 18:50 Mostly Sunny 90 32 75 24 63 63 S 6 9 29.92 1013 10 16 0.00 0.00
7:50 pm 19:50 Mostly Sunny 88 31 75 24 66 66 SSW 8 13 29.93 1014 10 16 0.00 0.00
8:50 pm 20:50 Mostly Clear 86 30 75 24 70 70 SSW 7 11 29.94 1014 10 16 0.00 0.00
9:50 pm 21:50 Mostly Clear 84 29 75 24 74 74 SSW 6 9 29.94 1014 10 16 0.00 0.00
10:15 pm 22:15 Clear 83 28.6 76 24.7 79 79 SSW 3 6 29.95 1014 10 16 0.00 0.00
10:35 pm 22:35 Clear 83 28.5 77 24.8 80 80 SW 6 9 29.95 1014 10 16 0.00 0.00
10:55 pm 22:55 Clear 83 28.5 77 25 81 81 SSW 7 11 29.95 1014 10 16 0.00 0.00
11:15 pm 23:15 Clear 83 28.4 77 25.1 82 82 SW 7 11 29.95 1014 10 16 0.00 0.00
11:35 pm 23:35 Clear 83 28.2 77 25.1 83 83 SW 5 7 29.95 1014 10 16 0.00 0.00
11:55 pm 23:55 Clear 83 28.1 77 25.1 84 84 SW 6 9 29.94 1014 10 16 0.00 0.00

Powered by AerisWeather